Regional Weather Roundup
Issued by NWS

Home | Current Version | Previous Version | Graphics & Text | Print | Product List | Glossary On
Versions: 1 2 3 4 5 6 7 8 9 10 11 12 13 14 15 16 17 18 19 20 21 22 23 24 25 26 27 28 29 30 31 32 33 34 35 36 37 38 39 40 41 42 43 44 45 46 47 48 49 50
000
ASUS43 KIND 211809
RWRIN

WEATHER ROUNDUP FOR INDIANA
NATIONAL WEATHER SERVICE INDIANAPOLIS IN
200 PM EDT THU SEP 21 2017

NOTE: "FAIR" INDICATES FEW OR NO CLOUDS BELOW 12,000 FEET WITH NO
SIGNIFICANT WEATHER AND/OR OBSTRUCTIONS TO VISIBILITY.

* - STATION DOES NOT REPORT WEATHER SUCH AS PRECIPITATION OR FOG.

+ - STATION NOT QUALITY CONTROLLED BY THE NATIONAL WEATHER SERVICE.
    USE DATA WITH CAUTION...ESPECIALLY DEWPOINT AND RELATIVE
    HUMIDITY OBSERVATIONS.

INZ001>003-010>013-019-020-211900-
NORTHWEST INDIANA

CITY           SKY/WX    TMP DP  RH WIND       PRES   REMARKS
GARY /AIRPORT/ PTSUNNY   91  61  35 VRB5      30.03F
KNOX *+        MOSUNNY   88  72  58 CALM      30.04F
LA PORTE +     SUNNY     87  73  63 S7        30.05F HX  95
6HR MIN TEMP:  68; 6HR MAX TEMP:  87;

MICHIGAN CITY+ SUNNY     88  72  58 S6        30.04S
MONTICELLO +   SUNNY     87  72  60 S7        30.04F
6HR MIN TEMP:  68; 6HR MAX TEMP:  87;

RENSSELAER +   MOSUNNY   88  66  48 SE7       30.04F
VALPARAISO     MOSUNNY   90  73  57 S5        30.04F HX  98
6HR MIN TEMP:  69; 6HR MAX TEMP:  91;


$$

LMZ046-743>745-211900-
SOUTHERN LAKE MICHIGAN

STATION/POSITION TIME  TEMP    WIND        PRES    WAVE
                       AIR SEA DIR/SP/G            HT
                 (UTC) (F)     (DEG/KT/KT) (MB)    (FT)
BURNS HARBOR     1740   86     190/  7/ 11 1016.9F
MICHIGAN CITY    1740   86     150/  5/  7   N/A
5NW MICH CITY    1800   81 71  260/  2/  4   N/A     0

$$

INZ004-005-014>016-021>024-211900-
NORTH CENTRAL INDIANA

CITY           SKY/WX    TMP DP  RH WIND       PRES   REMARKS
ELKHART        SUNNY     88  73  62 S6        30.05S HX  96
GOSHEN         SUNNY     88  71  57 VRB5      30.05S
6HR MIN TEMP:  71; 6HR MAX TEMP:  88;

LOGANSPORT +   MOSUNNY   88  70  55 S3        30.06F
PERU/GRISSOM   MOSUNNY   88  72  58 SW5       30.05F
6HR MIN TEMP:  70; 6HR MAX TEMP:  89;

SOUTH BEND     SUNNY     86  74  67 VRB5      30.05F
6HR MIN TEMP:  70; 6HR MAX TEMP:  86;

WARSAW +       SUNNY     86  72  62 CALM      30.06S

$$

INZ006>009-017-018-025>027-211900-
NORTHEAST INDIANA

CITY           SKY/WX    TMP DP  RH WIND       PRES   REMARKS
AUBURN +       MOSUNNY   88  70  55 SW6       30.08S
FORT WAYNE     MOSUNNY   86  71  60 CALM      30.08S
6HR MIN TEMP:  68; 6HR MAX TEMP:  88;

HUNTINGTON +   PTSUNNY   87  69  55 W6        30.06F
6HR MIN TEMP:  69; 6HR MAX TEMP:  88;

KENDALLVILLE + MOSUNNY   86  73  63 SW6       30.08S

$$

INZ028-029-035-036-043>045-051>053-211900-
WEST CENTRAL INDIANA

CITY           SKY/WX    TMP DP  RH WIND       PRES   REMARKS
CRAWFORDSVL +  SUNNY     90  66  45 S7        30.06
GREENCASTLE +  SUNNY     88  68  51 S10G22    30.07F
LAFAYETTE      MOSUNNY   88  72  58 SW9       30.04F
6HR MIN TEMP:  68; 6HR MAX TEMP:  89;

TERRE HAUTE    SUNNY     91  68  46 S9        30.05F HX  95
6HR MIN TEMP:  66; 6HR MAX TEMP:  92;


$$

INZ030>032-037>040-046>048-054>057-064-065-211900-
CENTRAL INDIANA

CITY           SKY/WX    TMP DP  RH WIND       PRES   REMARKS
CP ATTERBURY + MOSUNNY   90  68  48 S5        30.08F
COLUMBUS       MOSUNNY   86  66  51 S10       30.07F
FISHERS *+     MOSUNNY   90  75  62 SW3       30.07F HX 100
FRANKFORT +    CLOUDY    93  71  49 S3        30.08S HX  99
6HR MIN TEMP:  71; 6HR MAX TEMP:  93;

GREENWOOD *+   MOSUNNY   93  74  53 S6        30.08F HX 103
INDIANAPOLIS   MOSUNNY   88  69  53 SW8       30.06F
6HR MIN TEMP:  70; 6HR MAX TEMP:  90;

-EAGLE CREEK   MOSUNNY   89  68  49 VRB5      30.06F
6HR MIN TEMP:  71; 6HR MAX TEMP:  90;

KOKOMO +       MOSUNNY   89  72  56 S8        30.07F HX  96
6HR MIN TEMP:  69; 6HR MAX TEMP:  89;

MT COMFORT *+    N/A    N/A N/A N/A MISG        N/A
SHELBYVILLE    MOSUNNY   89  69  51 S5        30.07F
6HR MIN TEMP:  68; 6HR MAX TEMP:  90;

ZIONSVILLE +   MOSUNNY   86  70  58 S8        30.08S
6HR MIN TEMP:  68; 6HR MAX TEMP:  87;


$$

INZ033-034-041-042-049-050-058-059-211900-
EAST CENTRAL INDIANA

CITY           SKY/WX    TMP DP  RH WIND       PRES   REMARKS
MUNCIE         PTSUNNY   91  69  48 VRB5      30.08F HX  96
6HR MIN TEMP:  73; 6HR MAX TEMP:  91;

RICHMOND +     SUNNY     86  68  54 CALM      30.11F

$$

INZ060-061-067>069-081>083-085>088-211900-
SOUTHWEST INDIANA

CITY           SKY/WX    TMP DP  RH WIND       PRES   REMARKS
EVANSVILLE     MOSUNNY   89  71  55 VRB3      30.06F HX  95
6HR MIN TEMP:  69; 6HR MAX TEMP:  90;

HUNTINGBURG +    N/A    N/A N/A N/A MISG        N/A
WASHINGTON +   SUNNY     89  66  47 S3        30.06F
6HR MIN TEMP:  69; 6HR MAX TEMP:  90;


$$

INZ062-063-066-070>080-084-089>092-211900-
SOUTH CENTRAL AND SOUTHEAST INDIANA

CITY           SKY/WX    TMP DP  RH WIND       PRES   REMARKS
BEDFORD +      SUNNY     90  68  48 S5        30.08F
BLOOMINGTON    MOSUNNY   88  68  51 VRB3      30.08F
6HR MIN TEMP:  69; 6HR MAX TEMP:  89;

MADISON *+     MOSUNNY   84  70  61 CALM      30.11F
NORTH VERNON + SUNNY     86  70  58 SW3       30.09F
SEYMOUR +      SUNNY     90  68  48 CALM      30.07F

$$




USA.gov is the U.S. government's official web portal to all federal, state and local government web resources and services.